TimeEDT,TemperatureF,Dew PointF,Humidity,Sea Level PressureIn,VisibilityMPH,Wind Direction,Wind SpeedMPH,Gust SpeedMPH,PrecipitationIn,Events,Conditions,WindDirDegrees,DateUTC
12:58 AM,66.2,63.7,92,30.11,10.0,ENE,4.6,-,N/A,,Clear,60,2013-08-11 04:58:00
1:58 AM,66.0,64.2,94,30.11,10.0,NNE,4.6,-,N/A,,Clear,20,2013-08-11 05:58:00
2:58 AM,63.9,63.9,100,30.10,10.0,ENE,2.3,-,N/A,,Clear,60,2013-08-11 06:58:00
3:18 AM,62.6,62.6,100,30.10,9.0,ENE,3.5,-,N/A,,Clear,60,2013-08-11 07:18:00
3:28 AM,62.6,62.6,100,30.10,9.0,NE,3.5,-,N/A,,Clear,50,2013-08-11 07:28:00
3:48 AM,64.4,64.4,100,30.10,9.0,NNE,3.5,-,N/A,,Clear,30,2013-08-11 07:48:00
3:58 AM,63.9,63.9,100,30.10,10.0,NE,3.5,-,N/A,,Clear,40,2013-08-11 07:58:00
4:03 AM,62.6,62.6,100,30.10,9.0,NE,3.5,-,N/A,,Clear,40,2013-08-11 08:03:00
4:58 AM,62.8,62.8,100,30.10,7.0,NNE,4.6,-,N/A,,Clear,30,2013-08-11 08:58:00
5:28 AM,60.8,60.8,100,30.10,1.2,NE,2.3,-,N/A,,Clear,50,2013-08-11 09:28:00
5:33 AM,60.8,60.8,100,30.10,0.8,NNE,3.5,-,N/A,,Clear,30,2013-08-11 09:33:00
5:38 AM,62.6,62.6,100,30.10,1.0,NE,3.5,-,N/A,,Clear,50,2013-08-11 09:38:00
5:43 AM,60.8,60.8,100,30.11,2.0,NNE,3.5,-,N/A,,Clear,30,2013-08-11 09:43:00
5:48 AM,62.6,62.6,100,30.11,2.5,NNE,3.5,-,N/A,,Clear,30,2013-08-11 09:48:00
5:53 AM,62.6,62.6,100,30.11,3.0,NNE,3.5,-,N/A,,Clear,30,2013-08-11 09:53:00
5:58 AM,62.6,62.6,100,30.11,2.0,NNE,3.5,-,N/A,,Clear,30,2013-08-11 09:58:00
6:03 AM,62.6,62.6,100,30.11,2.0,NNE,3.5,-,N/A,,Clear,30,2013-08-11 10:03:00
6:08 AM,60.8,60.8,100,30.11,3.0,NNE,3.5,-,N/A,,Clear,30,2013-08-11 10:08:00
6:13 AM,60.8,60.8,100,30.11,1.5,NNE,3.5,-,N/A,,Clear,30,2013-08-11 10:13:00
6:18 AM,60.8,60.8,100,30.11,0.5,NNE,4.6,-,N/A,Fog,Fog,30,2013-08-11 10:18:00
6:23 AM,60.8,60.8,100,30.11,0.5,NNE,4.6,-,N/A,Fog,Fog,30,2013-08-11 10:23:00
6:28 AM,60.8,60.8,100,30.11,1.0,NNE,4.6,-,N/A,,Clear,30,2013-08-11 10:28:00
6:33 AM,60.8,60.8,100,30.11,2.0,NNE,4.6,-,N/A,,Clear,30,2013-08-11 10:33:00
6:43 AM,60.8,60.8,100,30.11,2.0,NNE,5.8,-,N/A,,Clear,20,2013-08-11 10:43:00
6:48 AM,60.8,60.8,100,30.11,2.5,NNE,4.6,-,N/A,,Clear,30,2013-08-11 10:48:00
6:58 AM,60.8,60.8,100,30.11,0.8,NNE,4.6,-,N/A,,Clear,30,2013-08-11 10:58:00
7:08 AM,60.8,60.8,100,30.12,0.5,NNE,4.6,-,N/A,Fog,Fog,30,2013-08-11 11:08:00
7:26 AM,62.6,62.6,100,30.11,1.0,NE,4.6,-,N/A,,Clear,40,2013-08-11 11:26:00
7:58 AM,62.6,62.6,100,30.11,2.0,East,4.6,-,N/A,,Clear,90,2013-08-11 11:58:00
8:25 AM,64.4,64.4,100,30.11,4.0,East,3.5,-,N/A,,Clear,80,2013-08-11 12:25:00
8:58 AM,66.4,66.4,100,30.12,6.0,NE,3.5,-,N/A,,Clear,50,2013-08-11 12:58:00
9:58 AM,70.0,67.1,91,30.13,10.0,NNW,5.8,-,N/A,,Clear,340,2013-08-11 13:58:00
10:30 AM,71.6,66.2,83,30.12,10.0,NE,3.5,-,N/A,,Mostly Cloudy,40,2013-08-11 14:30:00
10:58 AM,73.0,66.6,80,30.13,10.0,Variable,2.3,-,N/A,,Partly Cloudy,0,2013-08-11 14:58:00
11:58 AM,76.1,66.9,73,30.12,10.0,East,4.6,-,N/A,,Partly Cloudy,80,2013-08-11 15:58:00
12:58 PM,77.5,63.9,63,30.13,10.0,NNW,2.3,-,N/A,,Mostly Cloudy,330,2013-08-11 16:58:00
1:58 PM,79.9,64.6,59,30.12,10.0,NNE,2.3,-,N/A,,Partly Cloudy,20,2013-08-11 17:58:00
2:58 PM,80.8,63.0,54,30.12,10.0,Calm,Calm,-,N/A,,Partly Cloudy,0,2013-08-11 18:58:00
3:58 PM,81.7,62.8,53,30.10,10.0,WNW,6.9,-,N/A,,Clear,290,2013-08-11 19:58:00
4:58 PM,81.0,64.4,57,30.09,10.0,WNW,5.8,-,N/A,,Partly Cloudy,290,2013-08-11 20:58:00
5:58 PM,79.9,63.9,58,30.08,10.0,NNW,5.8,-,N/A,,Clear,330,2013-08-11 21:58:00
6:58 PM,79.0,63.3,59,30.08,10.0,NNW,5.8,-,N/A,,Clear,330,2013-08-11 22:58:00
7:58 PM,76.8,63.0,62,30.07,10.0,NNW,3.5,-,N/A,,Clear,330,2013-08-11 23:58:00
8:58 PM,74.5,63.1,68,30.07,10.0,NNW,1.2,-,N/A,,Clear,330,2013-08-12 00:58:00
9:58 PM,70.3,65.1,83,30.09,10.0,West,1.2,-,N/A,,Clear,280,2013-08-12 01:58:00
10:58 PM,67.3,64.8,92,30.09,10.0,Calm,Calm,-,N/A,,Clear,0,2013-08-12 02:58:00
11:58 PM,66.2,64.2,93,30.09,10.0,Calm,Calm,-,N/A,,Overcast,0,2013-08-12 03:58:00